This is the latest recevied weather packets stored in our database for station/object K4DFD-13. If no packets are shown the sender has not sent any weather packets the latest 10 day(s).
| Time | Temp. | Humidity | Pressure | Rain* | Wind** | Luminosity | Snow |
|---|---|---|---|---|---|---|---|
| 1777491530 | 21.67° C | 71% | 1010.1 hPa | 0 mm | - | - | - |
| 1777491229 | 21.11° C | 72% | 1009.8 hPa | 0 mm | - | - | - |
| 1777490929 | 21.11° C | 72% | 1009.9 hPa | 0 mm | - | - | - |
| 1777490629 | 21.67° C | 72% | 1009.8 hPa | 0 mm | - | - | - |
| 1777490328 | 21.11° C | 73% | 1009.8 hPa | 0 mm | - | - | - |
| 1777490028 | 21.11° C | 72% | 1009.9 hPa | 0 mm | - | - | - |
| 1777489127 | 20.56° C | 76% | 1010.5 hPa | 0 mm | - | - | - |
| 1777488526 | 20.56° C | 77% | 1010.5 hPa | 1.27 mm | - | - | - |
| 1777488226 | 20.56° C | 78% | 1010.7 hPa | 1.27 mm | - | - | - |
| 1777487928 | 20.56° C | 75% | 1010.7 hPa | 1.27 mm | - | - | - |
| 1777487625 | 20.56° C | 77% | 1010.4 hPa | 1.27 mm | - | - | - |
| 1777487325 | 20.56° C | 77% | 1010.4 hPa | 1.27 mm | - | - | - |
| 1777487024 | 20.56° C | 79% | 1010.8 hPa | 0.76 mm | - | - | - |
| 1777486724 | 20° C | 80% | 1010.6 hPa | 0.76 mm | - | - | - |
| 1777486424 | 19.44° C | 87% | 1010.5 hPa | 0.76 mm | - | - | - |
| 1777486123 | 18.89° C | 89% | 1010.8 hPa | 0.76 mm | - | - | - |
| 1777485823 | 18.89° C | 90% | 1011 hPa | 0.76 mm | - | - | - |
| 1777485523 | 18.33° C | 91% | 1011 hPa | 0.76 mm | - | - | - |
| 1777484622 | 18.89° C | 89% | 1011.7 hPa | 0 mm | - | - | - |
| 1777484321 | 18.89° C | 88% | 1011.5 hPa | 0 mm | - | - | - |
| 1777484021 | 18.89° C | 90% | 1011.6 hPa | 0 mm | - | - | - |
| 1777483721 | 18.89° C | 89% | 1011.7 hPa | 0 mm | - | - | - |
| 1777483421 | 18.89° C | 89% | 1011.9 hPa | 0 mm | - | - | - |
| 1777483120 | 18.89° C | 89% | 1011.9 hPa | 0 mm | - | - | - |
| 1777482519 | 18.33° C | 90% | 1011.6 hPa | 0 mm | - | - | - |
* Rain latest hour (hover to see other rain measurements)
** Current wind speed in m/s (hover to see current wind gust speed)